Temp
10 10 10 10 10 10 10 10 10 10 10 10 10 10 10 10 10 9 9 10 10 11 11 11 12 12 12 13 15 16 16 16 16 16 17 17 17 18 17 18 19 19 19 21 22 22 22
9 9 9 9 9 9 9 10 10 11 11 11 10 10 10 10 10 10 10 10 10 10 11 11 11 11 11 11 15 16 16 16 16 16 17 17 16 17 17 18 18 19 20 20 20 20 21
7 8 8 8 8 8 9 9 9 10 10 10 10 10 10 10 10 10 10 10 10 9 10 10 10 11 10 13 15 15 15 15 15 15 16 16 16 16 17 16 18 19 18 18 19 20 19
7 7 8 8 8 7 8 8 9 7 9 9 9 10 9 7 8 8 8 9 9 9 10 10 10 10 10 14 14 15 15 15 15 15 15 15 16 16 17 17 17 17 17 16 17 18 19
6 6 6 6 7 7 8 7 9 8 7 7 7 7 7 7 7 8 8 8 8 9 9 9 10 9 10 13 14 16 15 15 15 15 15 15 15 16 16 14 13 14 14 15 17 18 18
5 5 5 5 6 6 6 5 5 8 7 6 8 7 7 7 7 7 7 8 8 8 8 9 9 8 11 14 14 15 15 14 14 15 15 15 15 12 11 12 14 14 14 15 15 17 16
4 4 5 5 5 6 5 6 6 5 6 6 6 6 6 6 6 7 7 7 8 8 8 10 10 11 12 13 14 14 14 14 14 14 12 14 11 10 13 14 15 15 15 15 15 18 16
4 4 4 4 4 4 5 5 6 5 5 5 6 5 5 5 5 5 6 7 7 6 6 9 10 9 12 13 10 13 14 14 13 11 12 12 11 13 15 14 14 14 14 14 15 17 16
3 3 3 4 4 4 4 4 5 5 5 5 5 5 5 5 5 5 6 6 5 6 6 7 10 9 10 11 9 12 13 14 13 11 11 11 13 15 14 13 14 14 14 15 15 18 17
2 2 2 3 3 3 4 4 5 5 5 5 4 4 4 4 4 4 5 5 5 5 4 7 9 10 10 10 11 11 14 14 13 12 12 12 14 14 14 13 14 14 16 16 17 16 13
1 2 2 2 2 2 3 3 4 4 4 5 4 4 5 4 5 5 5 4 5 5 6 12 12 14 13 11 13 13 14 13 12 13 12 12 13 13 13 14 15 14 17 16 16 15 15
1 1 1 2 2 2 2 3 3 4 4 5 5 4 4 3 4 4 4 4 4 5 5 12 13 12 10 11 13 14 12 13 14 13 13 13 15 14 14 15 15 17 16 13 12 12 11
-0 0 0 1 1 1 2 2 2 3 4 4 4 4 4 4 4 4 4 4 4 4 11 12 13 13 13 11 12 13 12 11 11 10 10 12 13 15 15 14 15 16 14 10 10 9 13
-1 -1 -1 -0 -0 0 1 1 2 2 3 3 4 3 4 4 4 3 3 2 3 8 8 12 13 13 12 13 11 12 12 10 12 11 11 10 11 13 16 14 15 15 15 12 12 11 13
-1 -1 -1 -1 -0 -0 0 0 1 2 2 3 2 3 2 3 3 3 3 3 4 6 10 10 11 11 12 12 12 12 12 11 12 12 11 11 11 14 16 16 16 14 14 15 13 11 8
-2 -2 -1 -1 -1 -0 0 0 0 1 1 2 2 2 3 2 3 2 2 4 3 7 8 9 8 9 10 11 11 11 12 12 12 13 14 12 12 13 15 16 15 14 14 12 9 12 12
-2 -2 -2 -2 -1 -0 -0 0 1 1 0 1 1 2 2 2 2 2 2 3 3 6 6 8 7 7 8 9 10 10 9 13 11 12 13 13 12 12 13 14 14 14 14 13 13 12 12
-2 -2 -2 -2 -1 -1 -1 -0 0 1 0 0 0 -6 1 1 1 0 2 3 5 5 7 7 7 7 7 8 7 9 10 11 9 9 9 13 11 10 12 14 14 13 15 13 11 10 10
-2 -2 -2 -2 -2 -2 -1 -1 -0 0 -0 -1 -0 -0 0 0 1 1 1 3 4 5 6 7 7 7 7 6 6 7 8 6 6 6 5 6 8 10 11 12 13 13 14 15 14 10 11
-2 -2 -2 -2 -2 -2 -1 -1 -1 -1 -1 -1 -1 -7 -1 -1 -1 -1 -0 2 3 3 4 5 5 6 5 5 6 6 6 6 5 5 4 5 6 8 9 9 9 11 13 14 13 11 11
-2 -2 -3 -3 -2 -2 -2 -2 -1 -1 -1 -2 -2 -3 -2 -1 -1 -0 0 1 2 3 5 5 3 2 4 4 5 6 6 5 5 4 4 3 5 5 5 5 7 8 10 11 11 10 10
-2 -2 -2 -3 -3 -2 -2 -2 -2 -2 -2 -2 -3 -4 -2 -2 -0 -1 0 -0 2 2 3 4 4 4 4 4 5 5 5 4 5 5 4 4 4 4 5 4 4 5 5 7 6 6 7
-2 -3 -3 -3 -3 -3 -3 -3 -2 -2 -2 -3 -3 -2 -2 -2 -2 -1 -0 0 1 2 3 4 5 4 4 4 6 6 5 5 5 5 5 4 4 4 5 4 4 5 6 7 8 8 7
-2 -3 -3 -3 -3 -3 -3 -3 -2 -2 -3 -3 -3 -2 -2 -4 -3 -2 -1 1 1 2 1 3 4 4 4 6 5 4 4 4 5 5 6 4 4 4 4 5 4 7 9 9 8 9 10
-2 -3 -3 -3 -3 -3 -3 -3 -3 -3 -3 -3 -3 -3 -2 -5 -2 -1 -1 -1 -1 0 1 3 2 4 3 5 2 3 2 2 3 5 5 5 4 3 3 4 6 8 9 6 6 6 8
-2 -2 -3 -3 -3 -3 -3 -4 -4 -3 -3 -3 -3 -3 -3 -3 -2 -2 -2 -1 -2 -1 -1 1 2 4 2 1 2 3 2 4 4 5 5 5 4 2 3 3 4 6 8 8 7 4 7
-2 -2 -3 -3 -3 -3 -3 -3 -3 -3 -3 -3 -4 -4 -3 -3 -2 -2 -3 -1 -0 0 0 1 3 3 2 2 1 3 3 5 4 4 4 2 1 3 3 4 4 5 7 9 6 5 7
-2 -2 -3 -3 -3 -2 -3 -3 -3 -3 -4 -4 -4 -4 -4 -3 -3 -3 -2 -2 -1 -1 -1 -0 2 1 1 2 2 1 1 2 3 2 4 3 2 2 2 2 1 7 8 8 5 8 8
-3 -2 -3 -3 -3 -3 -3 -3 -3 -4 -4 -4 -4 -4 -3 -4 -3 -2 -2 -2 -1 -1 -2 -2 1 2 1 2 1 0 1 -1 2 2 5 3 2 2 2 2 4 7 8 9 8 9 9
Height
1494 1497 1501 1502 1504 1506 1508 1510 1512 1515 1517 1520 1522 1524 1525 1525 1526 1526 1527 1528 1529 1529 1528 1526 1525 1523 1522 1522 1516 1515 1513 1513 1512 1512 1514 1514 1512 1512 1512 1509 1508 1507 1502 1502 1502 1503 1504
1486 1489 1492 1495 1497 1499 1501 1503 1505 1508 1513 1515 1516 1518 1520 1520 1520 1521 1522 1523 1525 1525 1524 1523 1522 1521 1521 1521 1513 1513 1511 1510 1511 1511 1511 1513 1512 1512 1509 1506 1507 1504 1503 1501 1501 1503 1503
1480 1484 1486 1489 1490 1493 1495 1497 1499 1502 1504 1506 1508 1511 1513 1514 1514 1515 1518 1518 1520 1521 1521 1521 1519 1518 1517 1511 1511 1510 1508 1508 1509 1509 1509 1510 1511 1512 1509 1505 1504 1502 1503 1501 1498 1500 1502
1479 1480 1482 1484 1487 1490 1492 1495 1494 1499 1499 1500 1502 1504 1507 1509 1511 1510 1512 1513 1516 1517 1517 1517 1517 1514 1508 1505 1504 1501 1504 1503 1506 1508 1507 1507 1509 1509 1508 1506 1504 1503 1502 1507 1496 1495 1499
1474 1476 1480 1480 1481 1485 1488 1493 1492 1492 1498 1498 1501 1503 1504 1506 1507 1509 1510 1510 1512 1512 1513 1513 1514 1514 1502 1499 1496 1496 1497 1499 1503 1506 1505 1504 1506 1506 1508 1510 1515 1506 1513 1506 1499 1490 1495
1470 1472 1478 1479 1478 1482 1484 1488 1489 1485 1491 1496 1496 1497 1501 1503 1504 1504 1506 1509 1512 1510 1509 1511 1509 1516 1500 1497 1494 1495 1496 1497 1501 1502 1505 1502 1504 1506 1510 1513 1511 1507 1510 1504 1503 1492 1492
1467 1469 1473 1475 1478 1477 1480 1486 1487 1488 1488 1490 1492 1492 1494 1496 1499 1500 1504 1508 1515 1509 1506 1505 1503 1501 1497 1497 1494 1493 1496 1498 1499 1501 1502 1499 1506 1508 1496 1499 1497 1499 1501 1501 1493 1486 1492
1463 1466 1469 1471 1475 1477 1477 1480 1483 1484 1486 1488 1487 1492 1494 1494 1496 1497 1499 1502 1508 1509 1500 1495 1496 1491 1488 1493 1495 1490 1496 1498 1497 1497 1497 1501 1499 1487 1494 1496 1498 1500 1502 1499 1489 1482 1487
1460 1463 1465 1468 1471 1472 1473 1476 1478 1480 1482 1485 1487 1489 1492 1493 1494 1495 1495 1500 1506 1506 1501 1487 1483 1478 1479 1482 1480 1483 1489 1490 1490 1492 1492 1492 1487 1481 1490 1493 1496 1493 1496 1494 1493 1482 1480
1457 1460 1462 1465 1467 1469 1471 1472 1474 1476 1477 1483 1484 1487 1489 1491 1494 1494 1494 1498 1506 1508 1507 1480 1476 1465 1467 1474 1473 1472 1477 1483 1484 1487 1489 1484 1482 1482 1486 1488 1490 1491 1481 1483 1483 1489 1501
1454 1458 1460 1462 1465 1467 1469 1469 1471 1473 1473 1479 1482 1483 1485 1488 1489 1493 1494 1498 1505 1511 1506 1462 1464 1460 1461 1467 1464 1464 1462 1473 1476 1478 1483 1476 1472 1476 1478 1475 1480 1481 1476 1477 1476 1483 1484
1452 1456 1457 1459 1463 1464 1466 1469 1469 1470 1471 1475 1476 1478 1482 1486 1490 1491 1495 1500 1507 1513 1499 1458 1454 1454 1456 1462 1459 1458 1463 1471 1474 1477 1473 1470 1467 1469 1470 1467 1471 1470 1476 1478 1481 1486 1498
1449 1453 1455 1457 1460 1462 1464 1466 1466 1467 1469 1472 1473 1474 1479 1484 1487 1492 1494 1501 1508 1504 1467 1455 1450 1451 1448 1454 1459 1454 1460 1469 1473 1484 1476 1472 1461 1462 1466 1469 1467 1468 1475 1500 1504 1507 1480
1448 1451 1453 1457 1458 1460 1462 1463 1464 1466 1469 1470 1472 1474 1476 1481 1487 1489 1494 1501 1500 1472 1468 1449 1450 1449 1452 1452 1453 1451 1454 1462 1462 1464 1471 1473 1470 1456 1452 1457 1460 1460 1461 1476 1486 1491 1472
1446 1449 1451 1454 1456 1459 1459 1460 1462 1463 1466 1469 1470 1473 1475 1479 1481 1485 1490 1490 1482 1473 1461 1459 1454 1452 1454 1452 1454 1448 1452 1451 1448 1453 1461 1467 1456 1439 1439 1440 1449 1454 1457 1448 1466 1472 1489
1445 1448 1450 1453 1455 1456 1458 1459 1459 1460 1462 1467 1469 1473 1472 1477 1480 1484 1484 1476 1476 1464 1462 1462 1463 1457 1454 1453 1451 1449 1449 1443 1445 1444 1445 1448 1453 1437 1432 1436 1436 1442 1444 1462 1471 1469 1469
1443 1446 1449 1450 1452 1455 1456 1456 1458 1459 1461 1464 1468 1471 1470 1474 1479 1479 1475 1473 1468 1463 1468 1466 1467 1466 1461 1459 1452 1451 1456 1443 1446 1441 1441 1443 1450 1442 1435 1427 1428 1438 1439 1442 1442 1450 1454
1442 1444 1446 1449 1451 1453 1454 1457 1458 1458 1461 1463 1466 1469 1469 1472 1477 1474 1471 1471 1466 1462 1468 1468 1466 1468 1466 1463 1459 1455 1449 1447 1447 1453 1447 1433 1440 1443 1433 1425 1424 1426 1429 1433 1444 1451 1449
1440 1442 1444 1447 1449 1452 1453 1455 1456 1457 1458 1461 1464 1466 1469 1469 1472 1470 1470 1469 1467 1462 1464 1463 1461 1464 1463 1465 1465 1452 1452 1459 1453 1456 1456 1454 1440 1442 1432 1430 1419 1423 1418 1419 1423 1435 1439
1437 1439 1442 1445 1448 1449 1451 1452 1454 1455 1456 1461 1463 1470 1468 1469 1470 1471 1470 1466 1465 1458 1462 1464 1463 1462 1463 1461 1460 1457 1457 1460 1459 1458 1454 1454 1446 1438 1431 1433 1430 1419 1410 1409 1415 1428 1428
1433 1437 1440 1443 1445 1446 1447 1450 1451 1453 1455 1460 1461 1462 1462 1465 1465 1466 1469 1463 1460 1457 1454 1456 1460 1464 1460 1460 1456 1454 1458 1461 1461 1459 1456 1456 1449 1447 1445 1446 1438 1428 1421 1418 1417 1423 1427
1430 1434 1437 1440 1442 1443 1444 1446 1449 1452 1455 1458 1458 1459 1460 1459 1460 1463 1464 1459 1456 1450 1458 1449 1452 1452 1454 1457 1452 1451 1452 1455 1456 1456 1453 1452 1448 1451 1447 1446 1449 1444 1442 1438 1438 1437 1435
1427 1431 1434 1436 1438 1440 1442 1443 1447 1449 1452 1451 1454 1455 1457 1456 1456 1458 1456 1452 1447 1450 1447 1444 1446 1446 1448 1442 1445 1444 1445 1448 1446 1448 1447 1447 1448 1453 1440 1445 1447 1446 1435 1433 1429 1432 1433
1424 1426 1430 1433 1435 1437 1438 1440 1443 1446 1447 1448 1450 1452 1455 1452 1453 1452 1452 1450 1446 1447 1447 1443 1441 1441 1433 1440 1441 1442 1444 1445 1443 1443 1441 1445 1447 1447 1442 1438 1446 1424 1418 1420 1419 1420 1419
1419 1423 1426 1428 1430 1432 1433 1436 1439 1441 1443 1443 1446 1448 1450 1447 1447 1445 1446 1445 1444 1442 1441 1438 1432 1434 1437 1436 1434 1436 1444 1444 1438 1435 1434 1436 1439 1446 1443 1439 1426 1418 1414 1420 1420 1418 1415
1415 1418 1420 1423 1425 1426 1428 1430 1432 1435 1437 1438 1439 1443 1446 1445 1432 1438 1440 1440 1440 1437 1435 1426 1425 1428 1432 1429 1430 1428 1433 1428 1427 1424 1425 1434 1435 1441 1438 1443 1438 1420 1415 1415 1414 1426 1408
1409 1412 1414 1416 1418 1420 1421 1423 1426 1428 1430 1432 1432 1437 1439 1435 1426 1434 1433 1431 1433 1430 1426 1422 1418 1419 1421 1422 1421 1421 1423 1418 1424 1424 1424 1435 1438 1433 1440 1437 1431 1413 1411 1412 1423 1425 1411
1404 1406 1408 1410 1412 1413 1415 1416 1418 1420 1422 1425 1424 1428 1431 1425 1420 1423 1422 1423 1423 1424 1424 1416 1413 1408 1410 1414 1415 1419 1426 1419 1421 1422 1418 1423 1433 1438 1438 1438 1441 1407 1406 1409 1412 1405 1406
1398 1400 1402 1404 1405 1406 1408 1409 1410 1412 1414 1417 1415 1418 1421 1421 1410 1410 1406 1408 1411 1412 1421 1417 1403 1399 1402 1400 1402 1409 1412 1418 1415 1422 1411 1424 1418 1425 1424 1423 1406 1403 1403 1404 1405 1404 1403
Wind_Speed
35 36 33 32 33 34 32 31 31 30 27 25 24 24 25 23 23 24 24 24 22 20 20 22 23 23 21 13 18 10 12 11 13 11 8 7 10 3 2 8 11 5 5 12 7 12 7
28 29 27 29 31 31 29 31 30 30 30 29 27 27 26 29 28 28 27 27 24 22 21 21 22 21 16 9 7 8 11 13 11 10 10 7 7 17 12 3 1 7 7 2 7 9 9
17 18 20 19 18 21 21 18 19 22 27 30 32 31 28 32 34 31 32 27 26 24 23 22 22 21 19 31 23 19 19 18 10 9 11 9 12 9 7 6 11 8 4 4 4 3 4
19 20 21 23 21 18 16 17 13 9 14 25 31 30 20 6 7 6 9 17 22 24 20 20 21 18 17 25 20 26 22 26 17 13 13 11 13 11 5 7 10 4 1 3 3 7 7
15 16 17 15 17 18 19 17 20 11 11 11 3 7 8 9 10 9 11 8 6 13 14 16 15 11 17 13 12 5 13 19 13 12 12 11 7 6 3 3 5 3 4 5 5 8 5
16 15 15 13 11 10 8 8 7 14 15 14 21 14 13 10 2 3 8 10 11 6 8 10 13 9 16 13 9 9 8 14 10 7 11 8 3 2 1 4 11 6 5 4 6 3 8
18 18 17 14 13 13 12 15 10 6 5 5 4 9 10 12 16 14 15 8 4 2 1 9 7 14 13 6 4 4 7 8 13 8 7 5 3 8 19 11 2 4 4 5 5 5 6
17 16 17 17 18 17 15 14 25 13 9 6 4 7 10 11 9 6 5 1 5 4 11 18 25 35 36 33 12 11 12 10 9 9 6 3 12 18 9 8 8 11 11 13 10 9 7
16 16 16 15 16 16 16 18 16 16 9 10 9 10 11 10 11 10 11 11 14 6 6 11 27 19 28 29 24 31 12 17 7 8 9 12 6 13 13 13 12 14 14 13 10 3 3
14 15 14 13 13 14 14 15 17 15 15 12 15 15 12 10 6 7 8 11 11 5 2 7 7 9 14 14 9 33 34 20 7 12 10 11 17 16 9 15 13 17 13 13 15 8 5
14 13 11 11 12 12 11 11 11 10 13 15 13 18 14 12 6 6 5 14 10 4 2 7 8 6 11 17 5 11 36 29 14 8 7 8 6 13 20 24 16 13 9 9 7 5 1
15 14 13 11 10 10 10 11 11 9 9 16 13 20 15 19 12 7 11 15 11 1 9 4 6 10 9 14 5 4 14 14 18 8 12 10 14 5 7 12 18 8 4 5 4 3 6
13 12 10 10 10 10 9 9 8 8 9 11 11 18 16 21 17 11 21 17 2 5 4 4 6 7 9 8 9 6 7 14 10 6 16 13 22 20 14 9 6 10 6 1 2 1 10
12 11 11 10 9 8 8 7 6 8 8 10 13 16 19 14 14 20 26 3 5 6 9 9 5 3 8 4 7 12 8 9 19 10 2 9 9 16 15 21 10 13 15 7 8 6 9
12 11 10 10 10 10 9 8 6 7 7 10 8 12 16 16 22 26 22 6 8 6 4 4 6 8 12 13 7 8 19 10 12 25 13 7 11 4 13 16 19 10 15 12 3 3 2
11 10 11 10 9 8 6 8 7 5 5 7 11 9 11 16 21 27 5 10 6 5 5 6 2 4 2 9 13 8 9 11 18 14 21 5 9 6 5 13 13 11 6 4 1 14 17
12 12 10 9 8 8 8 7 6 6 3 6 8 7 5 14 13 10 4 5 7 19 8 3 5 5 4 4 6 4 7 8 5 6 16 23 15 9 3 12 19 9 14 6 6 8 16
12 11 10 9 9 9 9 8 8 7 8 6 6 3 6 13 9 4 3 5 4 5 7 7 2 5 5 3 3 5 6 12 8 12 6 18 8 18 30 9 8 5 18 12 7 12 7
13 11 10 10 9 10 9 9 9 9 9 8 6 4 5 14 3 6 3 5 9 16 3 7 10 8 1 1 5 3 8 12 9 5 8 9 4 16 17 12 19 15 17 22 14 3 12
15 12 11 10 11 10 10 10 10 10 11 10 5 2 2 8 6 2 2 7 8 13 17 17 6 6 5 10 6 4 8 3 5 3 7 9 4 5 16 2 5 6 21 22 20 12 14
15 14 13 13 12 11 11 12 11 12 12 13 6 4 4 4 5 8 4 5 10 10 15 11 9 10 7 5 6 8 8 4 4 5 3 3 2 5 8 14 12 11 11 5 4 2 8
16 14 14 13 12 11 11 12 13 14 15 15 8 5 4 1 3 6 8 4 14 20 13 12 14 14 16 16 16 5 5 5 5 7 3 4 2 4 3 3 7 7 12 13 7 4 5
16 16 14 14 12 12 14 13 13 15 18 10 11 6 3 5 2 4 7 8 12 10 16 31 19 15 19 20 23 11 16 9 8 6 1 1 3 3 3 4 4 5 12 11 11 12 7
16 16 16 14 12 12 13 15 16 17 21 22 11 10 6 4 6 6 7 12 14 12 14 27 23 16 21 10 11 14 14 14 9 10 10 7 6 4 3 5 3 11 10 8 8 13 10
17 17 16 14 13 12 13 16 18 20 21 22 19 16 7 4 9 10 14 14 23 24 23 25 29 32 19 14 5 4 2 2 9 14 14 9 5 2 1 3 4 10 6 6 4 5 5
18 18 17 16 15 15 16 18 22 22 22 23 23 23 18 7 14 21 12 15 10 14 15 26 35 30 27 4 4 5 5 5 4 3 12 6 3 3 2 1 4 4 5 12 6 4 5
20 20 20 18 18 17 15 16 19 23 23 26 25 23 24 22 33 22 9 11 12 7 6 12 9 15 24 6 3 2 2 3 5 4 4 3 1 10 4 4 7 5 8 2 3 5 5
23 25 25 24 20 19 18 19 19 19 21 22 27 26 30 25 31 21 24 30 26 19 9 20 8 7 4 8 4 4 4 6 3 5 5 5 5 4 5 4 6 6 2 2 6 4 4
21 21 24 21 17 16 17 20 23 25 27 25 33 33 33 35 25 15 31 36 49 44 30 25 19 4 10 2 1 3 2 2 5 2 2 2 5 4 6 5 5 6 5 8 11 16 14
Wind_Direction
243 243 243 244 242 241 245 244 246 249 246 250 256 262 266 267 269 271 275 278 281 286 295 300 309 314 319 312 288 307 299 312 312 291 276 293 320 318 263 296 313 211 266 233 197 187 186
217 221 226 226 229 236 235 244 248 248 253 255 253 254 260 258 256 260 263 271 275 276 288 294 301 307 311 285 296 297 283 282 299 281 263 250 299 322 275 258 223 308 283 295 146 178 182
216 220 208 208 206 212 222 228 239 248 252 239 241 246 254 262 243 247 257 258 268 272 278 290 294 300 290 271 289 281 266 269 270 289 261 234 295 321 314 315 337 307 281 317 213 210 216
241 245 241 239 251 265 257 249 236 300 243 232 237 242 237 164 225 245 260 263 268 265 269 280 288 295 278 293 281 269 252 251 254 270 253 279 276 297 263 296 335 322 121 247 257 182 231
233 242 245 248 254 257 256 266 258 232 210 200 230 142 116 116 93 77 43 29 283 265 270 268 282 285 275 285 287 305 231 241 244 258 251 264 263 254 308 96 341 283 239 224 303 209 162
226 226 228 228 229 227 237 242 253 263 245 253 248 258 263 278 237 326 11 17 342 293 262 268 250 283 259 270 296 286 256 220 226 236 244 242 231 100 358 151 222 207 231 250 225 267 185
220 220 222 223 223 214 216 238 239 229 235 239 275 261 245 253 274 280 289 332 302 329 278 231 259 238 278 333 266 242 209 205 213 230 196 194 144 208 215 222 250 219 239 236 240 233 172
216 215 218 214 217 217 224 214 225 217 242 241 239 222 207 216 223 223 262 240 243 257 295 273 273 258 257 254 282 215 219 196 191 209 162 251 226 228 229 236 230 249 255 259 283 267 172
207 208 211 211 213 216 220 229 223 230 224 235 230 213 215 220 217 215 197 180 183 195 258 272 262 248 245 237 231 226 211 208 209 209 196 210 226 208 215 234 240 237 233 249 239 272 268
208 210 210 209 211 215 217 220 229 234 228 236 240 211 208 214 214 210 211 203 193 123 314 270 236 244 214 211 262 224 218 204 215 208 217 244 238 250 235 236 225 242 231 244 251 229 214
197 199 201 203 208 209 210 216 219 223 229 228 226 207 208 211 193 161 154 161 159 148 299 187 194 188 178 172 177 211 216 206 203 189 171 227 207 214 227 231 226 246 221 229 207 189 230
205 207 206 209 213 212 218 225 225 219 221 214 210 207 196 193 201 181 160 166 153 133 246 257 185 181 143 214 219 86 171 194 220 243 259 244 265 213 222 234 224 256 194 47 45 112 247
191 193 191 193 201 211 213 220 217 211 210 201 179 198 200 208 207 171 157 153 149 203 271 224 207 186 182 176 222 166 161 183 194 188 238 257 253 255 260 288 252 206 139 239 275 238 241
197 201 201 206 212 218 215 213 208 208 197 198 205 228 223 209 209 178 168 118 191 227 247 318 339 106 202 163 240 204 183 176 212 209 232 205 269 213 220 219 222 220 203 204 202 201 241
210 205 199 202 211 222 226 222 216 209 196 201 193 198 203 219 224 180 164 197 201 214 241 331 329 281 239 262 283 192 215 219 204 206 200 202 247 212 231 206 196 215 209 197 153 19 73
190 189 187 188 194 193 194 203 204 204 196 195 199 206 212 210 220 188 228 199 253 235 359 7 335 354 345 245 237 207 203 235 238 222 220 215 276 213 222 205 231 206 170 145 280 225 240
190 191 192 192 190 183 189 183 190 190 157 165 161 165 184 195 191 190 225 228 244 255 340 343 11 327 303 327 341 303 314 280 345 291 210 229 244 259 16 202 214 210 213 224 186 200 229
197 193 193 191 192 188 187 187 186 177 179 172 146 77 149 172 183 205 217 206 278 302 222 243 11 237 261 346 264 248 229 218 22 353 318 229 218 247 240 265 287 266 236 204 198 223 221
211 198 198 195 195 195 195 198 187 185 182 156 122 125 153 175 204 225 255 247 247 269 244 212 209 223 30 280 321 0 35 16 22 74 4 342 249 239 261 265 253 243 244 225 218 101 208
216 214 206 201 203 202 201 201 196 193 186 177 145 78 211 198 223 170 54 268 258 257 246 258 302 273 255 268 206 279 327 34 360 49 38 355 282 249 240 250 291 224 240 223 212 215 222
211 216 213 213 216 212 206 204 200 196 191 188 172 209 179 177 232 215 210 266 253 263 217 222 235 234 251 262 260 244 247 293 240 219 108 109 343 357 10 8 358 346 336 17 224 50 218
214 215 217 221 220 220 200 205 201 197 197 202 163 166 192 213 235 193 211 235 249 256 263 259 227 234 220 235 234 249 182 190 203 211 167 199 56 358 319 88 348 324 325 330 284 263 246
211 214 213 223 226 208 204 207 207 203 202 203 206 187 148 218 189 213 221 233 256 273 262 248 248 229 230 227 233 236 191 226 199 182 220 148 141 207 275 144 90 278 237 250 231 228 223
213 213 216 223 219 218 216 213 215 212 216 223 201 201 185 254 203 212 251 261 267 272 265 278 277 216 228 256 168 180 199 224 229 227 207 190 183 176 237 164 181 237 242 274 270 264 256
218 221 226 232 235 239 236 228 226 225 221 226 221 213 212 252 231 242 243 257 268 274 266 269 270 259 260 246 228 185 198 284 226 228 220 197 169 195 204 201 293 283 223 161 128 284 280
227 232 237 242 246 253 247 239 230 229 228 232 230 231 228 259 244 242 255 255 270 273 279 275 259 255 217 168 191 187 178 193 200 216 213 186 162 150 129 153 236 189 143 142 164 292 322
234 240 247 250 253 255 245 240 237 241 236 235 240 234 233 242 253 256 229 247 233 260 274 291 245 215 205 187 174 154 181 203 187 158 161 128 42 212 210 234 276 268 270 177 142 241 310
233 241 248 249 255 257 253 251 252 248 239 236 242 234 228 246 256 251 246 244 252 245 248 261 213 189 203 182 182 164 169 214 135 209 185 160 151 181 180 198 268 217 299 118 213 296 260
241 248 239 244 253 256 258 258 255 253 247 246 250 248 240 237 250 255 251 256 248 252 256 271 289 148 179 180 199 132 143 105 153 218 163 213 173 186 180 213 260 289 269 303 306 278 259